North Canton, OH

3:04 AM EDT on September 01, 2016 (GMT -0400)
Akron-Canton Regional

Weather History for KCAK - May, 2014

Change the Weather History Date:

Saturday, May 17, 2014

  Actual Average Record
Temperature  
Mean Temperature 47 °F 59 °F  
Max Temperature 52 °F 70 °F 90 °F (1962)
Min Temperature 42 °F 49 °F 30 °F (1891)
Degree Days  
Heating Degree Days 18 7  
Month to date heating degree days 121 150  
Since 1 July heating degree days 6372 6026  
Cooling Degree Days 0 1  
Month to date cooling degree days 38 11  
Year to date cooling degree days 41 17  
Moisture  
Dew Point 42 °F    
Average Humidity 86    
Maximum Humidity 100    
Minimum Humidity 71    
Precipitation  
Precipitation 0.42 in 0.14 in 0.77 in (1980)
Month to date precipitation 3.25 2.28  
Year to date precipitation 15.58 13.73  
Snow  
Snow T in 0.00 in - ()
Month to date snowfall T 0.1  
Since 1 July snowfall 69.9 47.5  
Snow Depth 0.00 in    
Sea Level Pressure  
Sea Level Pressure 30.11 in    
Wind  
Wind Speed 6 mph (WSW)    
Max Wind Speed 17 mph    
Max Gust Speed 17 mph    
Visibility 8 miles    
Events Rain    
T = Trace of Precipitation, MM = Missing Value Source: NWS Daily Summary

Daily Weather History Graph

Daily Weather History Graph

Search for Another Location

Airport or City:

Trip Planner

Search our weather history database for the weather conditions in past years. The results will help you decide how hot, cold, wet, or windy it might be!

Date:

Astronomy

May. 17, 2014 Rise Set
Actual Time 6:06 AM EDT 8:38 PM EDT
Civil Twilight 5:34 AM EDT 9:10 PM EDT
Nautical Twilight 4:55 AM EDT 9:49 PM EDT
Astronomical Twilight 4:12 AM EDT 10:33 PM EDT
Moon 11:37 PM EDT (5/17) 8:47 AM EDT (5/17)
Length of Visible Light 15h 35m
Length of Day
14h 32m
Waning Gibbous, 89% of the Moon is Illuminated
May 17
Waning Gibbous
May 21
Last Quarter
May 28
New
Jun 5
First Quarter
Jun 13
Full

Hourly Weather History & Observations

Time (EDT) Temp. Windchill Dew Point Humidity Pressure Visibility Wind Dir Wind Speed Gust Speed Precip Events Conditions
12:51 AM 44.1 °F - 37.0 °F 76% 30.01 in 10.0 mi Calm Calm - N/A   Overcast
1:51 AM 44.1 °F 39.5 °F 37.0 °F 76% 30.03 in 7.0 mi South 8.1 mph - N/A Rain Light Rain
2:51 AM 44.1 °F 42.5 °F 41.0 °F 89% 30.02 in 4.0 mi South 3.5 mph - 0.01 in Rain Light Rain
3:51 AM 43.0 °F 39.5 °F 41.0 °F 93% 30.02 in 4.0 mi SSW 5.8 mph - 0.00 in Rain Light Rain
4:51 AM 43.0 °F 40.3 °F 41.0 °F 93% 30.02 in 6.0 mi SW 4.6 mph - 0.01 in Rain Light Rain
5:51 AM 43.0 °F 41.3 °F 42.1 °F 97% 30.03 in 5.0 mi SSW 3.5 mph - 0.01 in Rain Light Rain
6:51 AM 44.1 °F 41.5 °F 42.1 °F 93% 30.04 in 6.0 mi SSW 4.6 mph - 0.00 in   Mostly Cloudy
7:51 AM 44.1 °F 40.8 °F 42.3 °F 93% 30.06 in 6.0 mi SW 5.8 mph - N/A   Mostly Cloudy
8:51 AM 45.9 °F 42.9 °F 42.3 °F 87% 30.07 in 6.0 mi SW 5.8 mph - N/A   Mostly Cloudy
9:51 AM 45.5 °F 40.8 °F 42.4 °F 89% 30.09 in 7.0 mi WSW 9.2 mph - 0.00 in Rain Small Hail
10:37 AM 44.6 °F 38.8 °F 42.8 °F 93% 30.08 in 7.0 mi West 11.5 mph - N/A Rain Light Rain
10:51 AM 45.0 °F 39.3 °F 44.4 °F 98% 30.10 in 8.0 mi West 11.5 mph - 0.08 in Rain Light Rain
11:51 AM 48.4 °F - 46.2 °F 92% 30.09 in 8.0 mi WSW 13.8 mph - N/A   Overcast
12:51 PM 44.2 °F 39.2 °F 43.0 °F 95% 30.12 in 5.0 mi SSW 9.2 mph - N/A Rain Light Rain
1:51 PM 45.1 °F 42.0 °F 44.6 °F 98% 30.13 in 9.0 mi SW 5.8 mph - 0.04 in Rain Light Rain
2:51 PM 51.8 °F - 51.1 °F 97% 30.12 in 10.0 mi Calm Calm - 0.00 in   Mostly Cloudy
3:51 PM 51.1 °F - 44.4 °F 78% 30.14 in 7.0 mi West 8.1 mph - 0.00 in Rain Light Rain
4:51 PM 49.1 °F - 46.6 °F 91% 30.15 in 10.0 mi West 8.1 mph - 0.04 in   Mostly Cloudy
5:51 PM 51.8 °F - 44.6 °F 76% 30.14 in 10.0 mi West 8.1 mph - N/A   Mostly Cloudy
6:51 PM 49.8 °F - 41.5 °F 73% 30.17 in 10.0 mi Calm Calm - 0.00 in   Mostly Cloudy
7:51 PM 49.8 °F - 40.8 °F 71% 30.17 in 10.0 mi Calm Calm - N/A   Scattered Clouds
8:51 PM 47.3 °F - 42.8 °F 84% 30.19 in 10.0 mi WSW 4.6 mph - N/A   Scattered Clouds
9:51 PM 44.6 °F - 42.4 °F 92% 30.20 in 10.0 mi Calm Calm - N/A   Scattered Clouds
10:51 PM 43.9 °F 36.2 °F 42.8 °F 96% 30.25 in 4.0 mi WNW 17.3 mph - 0.02 in Rain Light Rain
11:51 PM 43.9 °F - 41.0 °F 90% 30.24 in 10.0 mi Calm Calm - 0.17 in   Mostly Cloudy